Tracking 19903 objects as of 16-Oct-2019
HD Live streaming from Space Station
objects crossing your sky now

NOAA 16 DEB

Track NOAA 16 DEB now!
10-day predictions


NORAD ID: 41714
Int'l Code: 2000-055PU
Perigee: 844.8 km
Apogee: 1,022.0 km
Inclination: 99.0 °
Period: 103.5 minutes
Semi major axis: 7304 km
RCS: Unknown
Launch date: September 21, 2000
Source: United States (US)
Launch site: AIR FORCE WESTERN TEST RANGE (AFWTR)

Note: This is SATELLITE DEBRIS
aabbcc
Your satellite tracking list
Your tracking list is empty




NASA's NSSDC Master Catalog

Two Line Element Set (TLE):
1 41714U 00055PU  19288.89490350 +.00001301 +00000-0 +10146-2 0  9992
2 41714 099.0192 322.1934 0121283 056.9659 304.3083 13.90667143172854
Source of the keplerian elements: AFSPC